Location: B�rgermoos
(47.6500°N, 9.0667°E)
Time: 03:07:16
(UTC+00:00)

Courier 1B - Pass Details

Date: 05 August 2021
Orbit: 963 x 1209 km, 28.3° (Epoch: 19 September)

Event Time Altitude Azimuth Distance (km) Brightness Sun altitude
Rises 20:46:44 0° 247° (WSW) 4,105 11.0 -16.0°
Reaches altitude 10° 20:52:08 10° 217° (SW) 3,117 10.0 -16.6°
Maximum altitude 20:54:27 12° 199° (SSW) 2,986 9.7 -16.9°
Enters shadow 20:56:02 11° 187° (S) 3,028 9.7 -17.0°
